Regional Weather Roundup
Issued by NWS

Home | Current Version | Previous Version | Text Only | Print | Product List | Glossary Off
Versions: 1 2 3 4 5 6 7 8 9 10 11 12 13 14 15 16 17 18 19 20 21 22 23 24 25 26 27 28 29 30 31 32 33 34 35 36 37 38 39 40 41 42 43 44 45 46 47 48 49 50

561
ASUS43 KLMK 220202
RWRKY
KENTUCKY REGIONAL WEATHER ROUNDUP
NATIONAL WEATHER SERVICE LOUISVILLE KY
1000 PM EDT SAT APR 21 2018

NOTE "FAIR" INDICATES FEW OR NO CLOUDS BELOW 12,000 FEET
WITH NO SIGNIFICANT WEATHER AND/OR OBSTRUCTIONS TO VISIBILITY.

KYZ001>023-026-027-061>063-070>075-220300-
WESTERN AND SOUTH CENTRAL KENTUCKY

CITY           SKY/WX    TMP DP  RH WIND       PRES   REMARKS
PADUCAH        FAIR      66  36  32 E9        30.15F
HENDERSON      FAIR      56  44  64 NE3       30.23
OWENSBORO      FAIR      63  34  33 NE5       30.24R
HOPKINSVILLE   MOCLDY    62  40  44 NE6       30.19R
BOWLING GREEN  FAIR      57  40  52 CALM      30.22R
GLASGOW        NOT AVBL
$$

KYZ024-025-028>034-038-045-046-053-220300-
NORTH CENTRAL KENTUCKY

CITY           SKY/WX    TMP DP  RH WIND       PRES   REMARKS
LOUISVILLE/SDF CLOUDY    61  29  29 NE8       30.26R
LOUISVILLE/LOU FAIR      60  30  32 NE10      30.27R
FORT KNOX      FAIR      61  30  31 NE7       30.26R
$$

KYZ035>037-039>044-047>052-055>060-089>105-220300-
NORTHEAST KENTUCKY

CITY           SKY/WX    TMP DP  RH WIND       PRES   REMARKS
LEXINGTON      FAIR      56  30  37 NE15      30.27R
COVINGTON      CLOUDY    54  21  27 NE9       30.33R
FRANKFORT      FAIR      59  25  27 NE7       30.27R
$$

KYZ054-064>069-076>088-106>120-220300-
SOUTHEAST KENTUCKY

CITY           SKY/WX    TMP DP  RH WIND       PRES   REMARKS
JACKSON        FAIR      60  22  23 NE6       30.27R
LONDON         FAIR      59  31  34 N8        30.25R
SOMERSET       NOT AVBL
MIDDLESBORO    FAIR      55  42  63 CALM      30.25R
MONTICELLO     FAIR      56  40  55 NW6       30.25R
$$





USA.gov is the U.S. government's official web portal to all federal, state and local government web resources and services.